Hourly Data Report for August 05, 2006

TORONTO CITY
ONTARIO

43°40'00.000" N
79°24'00.000" W
112.50 m
6158355
71508
XTO

Download Data

Hourly Data (August 2006)
Hourly Data Report for August 5, 2006
TIME
LST
Temp Definition
°C
Dew Point Definition
°C
Rel Hum Definition
%
Precip. Amount Definition
mm

Wind Dir Definition
10's deg

Wind Spd Definition
km/h
Visibility Definition
km
Stn Press Definition
kPa
Hmdx Definition


Wind Chill Definition


Weather Definition


00:00 20.5 14.6 69   LegendMM LegendMM   100.42     LegendNANA
01:00 19.9 14.3 70   LegendMM LegendMM   100.46     LegendNANA
02:00 19.2 13.7 70   LegendMM LegendMM   100.46     LegendNANA
03:00 18.9 13.6 71   LegendMM LegendMM   100.49     LegendNANA
04:00 18.8 14.1 74   LegendMM LegendMM   100.51     LegendNANA
05:00 18.4 14.5 78   LegendMM LegendMM   100.57     LegendNANA
06:00 19.5 14.9 75   LegendMM LegendMM   100.65     LegendNANA
07:00 20.0 15.3 74   LegendMM LegendMM   100.67     LegendNANA
08:00 22.0 15.1 65   LegendMM LegendMM   100.72 26   LegendNANA
09:00 22.8 16.1 66   LegendMM LegendMM   100.71 27   LegendNANA
10:00 23.7 17.1 67   LegendMM LegendMM   100.74 29   LegendNANA
11:00 24.2 16.9 64   LegendMM LegendMM   100.77 29   LegendNANA
12:00 24.9 15.7 57   LegendMM LegendMM   100.72 29   LegendNANA
13:00 25.3 15.6 55   LegendMM LegendMM   100.74 30   LegendNANA
14:00 25.8 15.7 54   LegendMM LegendMM   100.68 30   LegendNANA
15:00 24.7 17.9 66   LegendMM LegendMM   100.67 31   LegendNANA
16:00 25.0 17.4 63   LegendMM LegendMM   100.66 31   LegendNANA
17:00 24.3 15.9 59   LegendMM LegendMM   100.65 29   LegendNANA
18:00 24.0 15.7 60   LegendMM LegendMM   100.65 28   LegendNANA
19:00 23.6 15.7 61   LegendMM LegendMM   100.68 28   LegendNANA
20:00 23.1 16.0 64   LegendMM LegendMM   100.68 28   LegendNANA
21:00 22.6 16.5 68   LegendMM LegendMM   100.68 28   LegendNANA
22:00 22.5 17.4 73   LegendMM LegendMM   100.66 28   LegendNANA
23:00 21.9 17.9 78   LegendMM LegendMM   100.69 28   LegendNANA

Notes on Data Quality.

Legend

  • E = Estimated
  • M = Missing
  • NA = Not Available*
  • [empty] = Indicates an unobserved value
Date modified: